This is the latest recevied weather packets stored in our database for station/object KC3AWA. If no packets are shown the sender has not sent any weather packets the latest 10 day(s).
| Time | Temp. | Humidity | Pressure | Rain* | Wind** | Luminosity | Snow |
|---|---|---|---|---|---|---|---|
| 1777985459 | 17.78° C | 64% | 1008.2 hPa | 0 mm | - | 96 W/m² | - |
| 1777985155 | 17.22° C | 64% | 1007.9 hPa | 0 mm | - | 157 W/m² | - |
| 1777984852 | 17.78° C | 64% | 1008 hPa | 0 mm | - | 119 W/m² | - |
| 1777984548 | 17.78° C | 65% | 1008.1 hPa | 0 mm | - | 119 W/m² | - |
| 1777984244 | 17.22° C | 65% | 1008.1 hPa | 0 mm | - | 152 W/m² | - |
| 1777983941 | 17.22° C | 64% | 1008.1 hPa | 0 mm | - | 148 W/m² | - |
| 1777983638 | 17.22° C | 64% | 1007.9 hPa | 0 mm | - | 98 W/m² | - |
| 1777983335 | 17.22° C | 66% | 1007.9 hPa | 0 mm | - | 108 W/m² | - |
| 1777983032 | 17.22° C | 65% | 1007.9 hPa | 0 mm | - | 97 W/m² | - |
| 1777982728 | 17.22° C | 64% | 1007.8 hPa | 0 mm | - | 85 W/m² | - |
| 1777982424 | 17.22° C | 64% | 1007.9 hPa | 0 mm | - | 95 W/m² | - |
| 1777982118 | 17.22° C | 65% | 1008 hPa | 0 mm | - | 122 W/m² | - |
| 1777981816 | 17.22° C | 65% | 1007.7 hPa | 0 mm | - | 80 W/m² | - |
| 1777981513 | 17.22° C | 65% | 1007.6 hPa | 0 mm | - | 74 W/m² | - |
| 1777981209 | 17.22° C | 65% | 1007.7 hPa | 0 mm | - | 78 W/m² | - |
| 1777980906 | 17.22° C | 66% | 1007.5 hPa | 0 mm | - | 78 W/m² | - |
| 1777980602 | 17.22° C | 66% | 1007.6 hPa | 0 mm | - | 95 W/m² | - |
| 1777980299 | 16.67° C | 66% | 1007.4 hPa | 0 mm | - | 91 W/m² | - |
| 1777979996 | 16.67° C | 66% | 1007.2 hPa | 0 mm | - | 84 W/m² | - |
| 1777979690 | 16.67° C | 67% | 1007.5 hPa | 0 mm | - | 69 W/m² | - |
| 1777979386 | 16.67° C | 67% | 1007.3 hPa | 0 mm | - | 65 W/m² | - |
| 1777979084 | 16.67° C | 68% | 1006.9 hPa | 0 mm | - | 55 W/m² | - |
| 1777978780 | 16.67° C | 66% | 1007 hPa | 0 mm | - | 59 W/m² | - |
| 1777978477 | 16.67° C | 68% | 1007.1 hPa | 0 mm | - | 58 W/m² | - |
| 1777978173 | 16.67° C | 67% | 1007.1 hPa | 0 mm | - | 47 W/m² | - |
* Rain latest hour (hover to see other rain measurements)
** Current wind speed in m/s (hover to see current wind gust speed)